Wind_Speed
8 6 6 6 6 6 7 7 7 6 5 5 5 4 3 3 4 3 1 1 4 7 8 9 10 12 13 14 15 14 14 14 13 13 12 12 12 12 11 11 13 14 11 9 9 9 9 8 8 7 7 6 6 6 5 5 6 7 8 9 8 6 5
11 9 7 5 5 6 6 6 5 4 3 3 4 3 2 2 3 3 2 1 1 3 6 7 9 11 12 13 14 14 14 13 13 13 12 12 12 11 10 11 14 14 11 10 11 11 10 9 8 8 7 7 7 7 6 6 6 6 8 7 6 4 3
14 11 8 6 6 6 6 5 3 2 2 2 2 2 1 1 1 2 2 1 0 2 5 7 9 11 12 13 13 13 12 12 13 12 11 12 12 11 10 12 14 13 10 9 10 11 9 8 8 8 8 8 8 8 7 6 5 6 7 5 3 3 2
13 10 8 7 7 6 5 3 2 2 2 2 2 2 2 2 3 2 1 1 1 2 5 7 9 11 12 13 13 13 13 12 11 11 11 10 10 10 10 12 13 12 9 8 9 8 7 7 7 8 8 9 8 8 7 5 6 7 6 5 4 3 3
12 10 9 7 6 5 3 2 2 3 4 4 4 4 3 3 4 4 2 1 2 3 4 6 8 10 11 11 11 11 11 11 11 11 10 10 10 10 11 12 12 12 10 10 9 8 8 9 8 8 9 8 7 7 7 7 8 8 6 5 4 3 2
13 11 10 7 6 4 2 2 4 4 4 4 5 5 4 4 5 6 5 4 3 3 5 6 8 10 10 9 8 7 8 9 11 11 11 11 11 11 12 12 12 12 12 12 11 10 10 10 10 9 9 8 7 7 7 8 8 7 5 4 4 3 2
14 12 10 7 6 4 4 4 5 5 4 4 5 5 4 4 5 6 6 5 3 4 5 7 8 9 10 9 8 7 7 8 9 10 10 10 10 11 12 12 12 12 12 12 12 12 11 10 10 9 8 8 7 7 8 8 7 5 4 3 3 3 3
15 13 11 9 7 6 5 5 6 7 6 5 5 5 4 4 5 6 6 5 4 4 5 7 8 8 9 9 7 7 7 7 8 8 8 8 8 9 10 11 11 11 10 10 10 11 11 10 9 9 8 8 7 7 8 9 7 6 5 4 3 3 3
17 15 13 10 8 7 7 7 7 8 7 6 5 5 4 4 5 6 6 5 4 5 6 6 7 8 8 9 8 7 7 6 6 5 5 5 6 7 8 9 9 8 8 9 9 9 10 10 9 9 7 6 6 6 8 9 10 9 8 6 3 3 3
18 16 13 11 9 8 8 7 7 6 5 5 4 4 5 5 5 6 6 5 5 6 7 7 8 9 9 9 8 7 7 6 5 5 4 4 6 7 7 7 8 7 7 9 9 8 9 9 8 6 2 3 5 6 7 9 10 9 8 7 4 3 2
19 16 13 11 10 8 7 7 7 6 4 4 3 4 5 5 6 6 6 6 6 7 8 8 9 10 10 10 9 7 6 6 6 5 5 5 6 7 7 8 9 8 8 9 9 7 7 6 4 3 2 3 5 7 8 9 9 7 6 4 3 3 2
19 16 13 11 10 8 7 7 8 7 6 6 4 4 5 5 6 6 6 7 7 8 8 8 9 10 11 10 9 7 6 5 6 6 7 7 8 9 10 10 10 9 8 8 8 6 5 3 1 1 1 2 4 7 9 9 8 6 4 4 5 5 4
17 14 12 11 10 8 7 8 9 8 7 6 5 5 6 6 6 6 7 7 8 8 8 8 9 9 10 9 9 8 7 7 7 8 9 9 10 11 11 12 11 10 8 8 7 6 4 4 3 2 1 1 2 6 7 6 5 4 5 6 6 6 6
15 13 11 11 11 10 9 9 9 8 8 6 5 6 7 7 7 7 8 8 9 9 8 8 8 9 9 8 8 7 7 7 8 8 8 8 9 10 11 11 11 10 9 8 7 6 5 4 3 2 2 3 2 2 3 3 3 4 6 7 7 7 8
14 13 12 12 12 11 10 10 9 8 8 7 5 6 7 7 8 9 10 10 10 10 9 9 9 9 9 8 8 8 8 8 7 8 8 9 10 11 11 10 10 9 9 8 7 6 5 3 2 3 4 5 6 6 6 6 7 8 9 10 10 9 9
14 14 13 13 13 12 10 9 8 8 7 6 5 6 7 8 11 12 11 11 11 11 11 11 11 11 10 10 9 9 9 9 9 9 9 9 10 10 11 11 10 9 9 8 7 6 5 3 3 3 5 6 7 8 9 9 10 10 12 13 13 12 11
15 15 15 14 13 11 9 8 7 7 6 5 5 5 5 10 14 13 12 12 12 12 12 12 12 12 12 12 11 10 10 11 11 11 11 10 9 9 10 10 9 9 7 6 5 4 4 3 3 5 6 7 9 9 10 10 11 12 13 14 15 14 13
19 18 16 13 11 9 8 8 7 6 5 4 3 3 4 12 15 14 13 13 12 12 12 12 12 13 13 13 12 13 12 12 12 12 11 10 9 9 8 8 7 6 5 5 4 4 4 4 5 6 7 8 9 10 10 11 12 12 13 13 14 14 13
20 18 15 12 10 9 10 9 7 6 4 4 3 2 7 14 15 14 14 13 12 12 12 12 12 12 13 12 13 13 13 13 13 12 10 9 9 8 7 6 6 5 5 6 6 6 6 6 7 8 9 10 11 11 12 13 14 14 14 14 14 14 15
15 12 11 12 11 11 11 9 8 6 5 5 6 6 8 13 15 14 14 13 13 12 12 12 12 12 12 12 12 12 13 13 12 10 9 9 8 7 6 5 5 6 7 7 8 8 8 8 8 9 10 11 13 14 15 16 17 18 18 17 17 17 18
12 11 12 13 12 11 11 10 9 7 7 7 8 7 8 11 13 13 12 12 12 12 12 12 11 11 12 12 11 11 11 11 11 10 10 9 8 7 6 6 7 7 8 9 9 10 10 10 11 11 12 13 14 16 17 18 19 20 21 22 22 22 22
14 14 14 14 12 11 12 12 10 9 8 8 8 9 9 10 11 11 11 12 12 12 12 12 11 11 11 11 11 12 11 11 11 11 11 11 10 9 9 9 10 10 11 12 12 12 13 14 14 15 16 17 17 18 19 20 21 21 23 24 25 26 25
16 17 16 15 14 13 13 13 11 10 9 9 9 11 11 12 12 11 12 12 12 12 12 12 12 12 12 12 12 13 13 13 14 14 14 14 14 14 13 13 14 15 15 15 15 16 16 17 18 19 19 20 21 22 22 22 23 24 25 26 27 27 27
16 18 17 15 14 13 13 13 12 11 11 11 11 12 13 14 14 14 14 14 14 14 14 13 14 14 15 15 15 16 16 17 18 18 18 18 18 18 18 18 19 19 20 20 19 19 20 21 21 22 22 23 24 24 25 25 25 26 26 28 28 28 27
17 20 20 17 15 14 12 12 12 11 12 12 13 13 13 14 15 16 16 16 15 15 15 15 16 16 17 17 18 19 20 21 21 21 22 22 22 23 23 23 23 24 24 24 23 23 23 23 24 24 25 25 26 27 27 27 27 26 27 28 29 30 30
20 22 22 20 20 20 18 16 16 15 13 12 12 13 13 14 16 16 17 16 16 16 16 17 18 18 19 20 20 21 21 21 22 22 22 23 24 25 26 26 26 26 26 27 27 26 26 26 27 27 27 28 29 29 29 28 27 27 27 28 29 31 32
22 23 23 23 24 25 24 23 21 19 17 14 13 12 12 13 15 16 15 14 14 15 16 17 18 19 19 20 21 22 22 23 24 24 24 24 24 25 26 27 27 28 29 29 29 28 29 29 29 29 29 30 30 30 30 29 27 26 27 28 29 30 31
24 23 23 24 25 26 25 23 21 18 16 16 15 15 15 16 17 17 16 14 13 13 14 15 16 17 18 18 19 21 21 22 22 23 24 25 26 27 27 28 28 29 29 30 30 30 30 30 31 31 31 31 31 31 30 29 28 28 27 27 28 28 29
23 23 23 23 23 22 21 20 18 16 15 15 15 15 16 17 18 18 17 17 16 15 15 16 16 16 17 17 19 20 20 20 21 21 22 23 25 27 28 29 29 29 30 31 30 30 30 31 31 32 32 31 32 32 31 31 31 31 30 29 29 29 30
22 22 22 21 21 21 20 19 18 18 18 18 18 18 18 19 19 19 19 18 18 17 17 17 18 18 18 19 20 21 22 24 24 24 24 25 25 26 27 28 28 29 29 28 28 30 31 32 31 31 32 33 34 34 33 32 32 33 32 31 30 31 31
22 23 23 21 21 21 21 21 20 20 20 20 21 21 22 22 22 23 22 22 22 21 20 21 21 21 21 21 22 23 25 27 28 28 28 29 30 29 30 30 29 28 28 27 29 32 33 33 32 32 33 35 35 34 34 34 33 32 30 30 31 33 33
23 23 23 23 23 23 23 23 22 22 22 22 23 24 24 25 25 25 26 26 26 26 25 25 25 26 26 26 26 26 27 29 30 30 31 32 32 32 33 34 32 31 31 31 32 33 34 35 35 34 35 37 36 35 36 36 35 31 29 30 33 34 33
23 23 23 23 24 24 24 24 24 24 24 25 25 26 27 27 28 28 29 30 30 31 31 30 30 31 32 32 32 31 31 32 32 32 33 33 33 33 35 35 33 33 33 34 34 34 35 36 36 36 38 38 37 37 38 36 34 31 29 31 34 34 33
22 23 24 24 25 26 26 26 27 28 29 30 31 31 31 32 33 33 34 35 35 36 37 37 37 37 38 38 38 38 38 38 37 36 36 36 36 36 36 36 35 34 34 35 36 36 36 37 36 36 37 37 36 37 37 34 32 30 29 31 33 33 33
26 27 28 29 30 31 31 32 33 34 35 36 36 37 38 38 39 39 39 40 41 41 42 43 44 44 43 43 43 43 44 44 42 41 40 40 40 39 38 36 35 35 35 35 36 36 36 37 36 35 34 35 36 37 36 34 31 29 31 33 34 34 33
31 32 33 33 34 35 36 37 37 38 38 39 40 41 42 42 43 43 43 43 44 45 46 47 47 48 48 47 47 47 47 47 45 44 44 44 43 41 39 37 36 35 35 34 34 34 35 36 36 36 35 36 37 37 38 38 35 33 34 36 36 34 32
32 33 34 35 36 36 37 38 39 40 41 42 42 43 44 45 45 46 46 46 46 47 47 48 49 50 51 51 51 50 49 49 48 47 46 46 44 43 41 39 38 37 36 35 34 34 35 36 36 37 37 37 38 39 40 40 38 37 37 37 36 33 31
Wind_Direction
186 191 180 164 158 165 175 179 180 175 170 169 163 148 120 95 81 78 88 198 216 218 219 220 212 205 202 199 200 207 214 215 215 218 225 230 228 228 230 229 230 233 232 229 229 227 225 222 217 215 220 231 241 247 253 258 261 262 260 261 262 260 258
192 194 184 172 171 183 194 196 194 187 180 178 178 168 139 97 77 76 73 86 215 213 213 220 221 215 211 208 209 212 215 216 217 220 226 227 225 227 232 231 233 238 234 227 230 234 233 224 214 214 220 233 244 247 249 253 254 252 253 257 261 264 262
195 191 186 184 187 195 201 204 212 221 205 192 194 189 176 339 5 41 46 34 342 210 207 207 212 218 219 221 222 222 224 225 222 221 223 225 225 227 229 228 232 240 241 236 238 239 235 222 212 216 218 223 237 247 249 245 232 229 239 244 238 228 234
197 193 191 191 194 198 195 198 228 268 285 276 268 260 246 269 284 298 352 343 285 237 217 207 203 209 215 221 226 227 230 233 230 226 224 226 229 225 221 220 224 231 234 235 239 238 231 222 218 223 222 221 232 244 243 231 217 219 223 219 203 197 214
199 196 194 199 202 198 192 213 275 302 304 295 286 281 270 263 259 249 240 243 252 244 227 207 191 194 202 209 216 220 225 230 230 230 229 227 227 223 219 219 220 222 225 229 228 217 212 216 220 227 232 229 228 226 218 211 215 223 224 216 207 204 211
199 197 197 204 208 212 239 283 310 312 303 283 273 282 288 280 262 241 226 212 206 210 213 203 188 190 196 194 193 202 218 228 231 234 233 227 225 226 228 227 224 224 225 226 224 218 217 221 223 228 236 232 214 202 203 208 214 221 223 220 212 199 180
203 197 202 209 215 238 269 290 304 300 294 278 262 274 284 274 260 243 231 211 181 180 193 196 194 196 199 191 182 191 210 223 227 230 230 226 226 230 232 231 231 229 225 224 226 224 223 223 222 225 231 226 209 194 197 203 205 202 189 180 182 169 147
206 202 210 218 230 255 272 281 285 282 284 277 262 264 265 254 249 241 235 217 178 173 184 189 190 194 197 192 187 192 201 207 210 211 213 211 214 223 227 229 229 226 220 216 218 219 216 213 216 221 222 222 216 203 198 191 177 165 153 143 154 144 119
208 211 220 231 246 264 273 275 280 283 278 265 257 253 241 236 241 238 235 219 178 172 181 182 185 189 191 192 194 192 186 186 196 203 203 198 197 204 212 216 215 213 211 206 206 214 217 218 227 233 227 219 214 206 200 185 165 152 143 139 149 139 107
215 219 226 242 257 269 275 276 287 297 280 260 258 244 233 235 240 242 235 214 179 173 179 179 184 187 186 191 197 192 178 173 182 195 200 197 191 192 200 207 210 211 218 223 222 223 229 238 255 266 252 173 182 187 187 178 165 152 143 144 158 163 146
219 224 233 250 264 271 274 283 302 310 293 285 278 245 243 240 241 246 232 205 180 175 180 178 182 186 187 191 196 193 184 177 179 185 189 188 187 190 197 208 218 222 226 234 237 236 236 248 277 313 19 94 144 169 171 162 157 151 149 159 182 204 211
218 228 242 258 268 270 276 293 308 311 300 294 287 259 255 249 247 242 218 195 176 174 180 178 180 187 189 191 192 192 189 182 178 177 174 174 179 186 194 205 221 229 226 223 224 223 216 207 181 120 9 47 129 161 166 158 154 163 185 205 215 227 239
220 234 249 265 271 270 279 297 306 308 300 291 283 265 255 253 249 225 198 185 170 169 177 175 177 184 187 186 186 187 183 177 175 174 173 175 179 184 192 202 213 219 216 210 208 203 187 176 173 167 200 303 153 166 172 169 172 196 223 229 230 236 245
224 239 256 270 272 269 280 296 301 298 290 285 279 260 249 247 234 201 181 174 164 162 164 164 167 175 179 176 172 172 171 171 173 173 176 181 179 179 187 195 202 204 203 200 193 189 185 187 205 219 236 270 266 226 221 233 247 259 264 262 264 267 265
229 245 260 268 267 270 283 292 290 283 278 280 275 256 247 233 207 183 170 166 158 152 149 150 154 160 162 156 151 153 153 157 163 164 168 174 172 170 171 177 186 189 187 185 184 190 203 212 228 244 256 271 282 285 284 284 285 286 288 287 287 287 284
233 249 260 261 262 272 282 282 276 269 270 277 269 259 250 216 190 175 167 162 153 147 146 146 149 149 147 144 143 144 144 146 150 153 160 167 166 162 159 160 169 176 178 183 190 204 222 233 244 259 269 274 278 279 279 280 284 287 291 292 292 290 284
238 252 252 251 259 270 269 261 256 255 264 268 261 269 245 194 180 172 166 160 151 149 150 149 149 147 146 147 144 143 146 149 151 153 158 160 158 156 155 160 168 174 181 193 208 230 250 271 286 290 289 286 283 279 276 277 280 284 289 291 289 286 281
229 237 238 244 257 259 243 235 235 240 251 245 243 270 199 177 174 171 167 162 156 155 155 153 152 150 151 152 149 148 154 156 154 155 158 157 157 158 161 171 182 189 200 214 227 247 268 290 297 296 295 293 291 287 285 285 284 284 286 286 282 280 277
217 216 218 232 244 232 222 221 222 224 227 213 199 177 168 172 175 175 172 167 162 161 161 159 156 155 158 159 156 155 160 163 160 160 164 167 170 175 183 193 204 217 230 240 247 252 264 279 288 295 299 299 299 297 296 294 291 289 290 289 287 282 277
222 221 219 224 222 211 210 213 212 213 205 191 183 169 169 177 182 183 181 176 171 171 173 172 166 165 168 169 168 166 168 172 172 172 180 189 193 196 203 212 228 245 253 257 262 266 270 277 287 297 301 306 309 309 306 302 297 295 294 293 290 284 278
229 243 247 237 218 202 206 209 206 204 195 187 185 178 178 188 191 192 193 190 185 184 187 187 183 180 181 183 186 186 185 187 191 194 202 212 218 222 227 233 244 255 260 262 267 274 278 282 289 295 296 301 307 310 312 308 301 295 292 292 290 286 281
222 227 240 240 222 203 203 204 201 198 194 188 187 187 193 200 202 203 206 206 205 203 202 204 204 201 201 202 206 210 211 212 214 219 224 229 236 243 248 252 257 259 262 265 270 276 282 286 290 292 291 291 295 301 306 307 303 296 289 288 287 284 280
225 218 223 230 227 218 212 208 200 192 192 193 193 194 198 204 208 212 214 216 220 220 219 221 223 223 223 224 227 231 235 236 237 239 241 243 247 251 255 258 260 262 264 267 270 274 278 282 286 288 287 287 288 292 295 299 301 299 292 286 282 278 276
221 215 215 220 226 226 223 217 206 193 189 193 200 202 202 205 209 213 215 217 220 224 226 228 231 235 238 240 242 245 248 250 251 251 252 253 254 255 257 258 259 261 263 264 267 269 271 275 280 283 283 283 283 286 288 290 293 296 296 290 281 276 273
206 207 211 217 222 225 227 229 225 215 201 196 201 205 206 210 212 214 216 216 216 219 221 224 228 231 235 240 244 247 251 254 256 258 260 261 261 260 261 261 263 264 266 267 268 269 271 273 276 278 279 279 280 282 284 287 289 292 295 292 282 273 270
205 205 210 213 216 219 222 229 235 232 222 213 209 209 212 215 217 219 220 219 218 217 217 220 225 227 229 232 235 239 242 247 252 255 258 261 263 263 263 263 264 266 268 270 271 272 273 275 276 277 278 278 280 281 284 287 288 290 293 291 281 270 266
213 212 213 214 215 216 219 225 230 230 229 228 224 221 225 227 227 229 228 225 224 223 221 222 225 228 230 231 233 236 238 241 245 248 251 253 255 258 261 263 264 265 267 269 271 272 274 275 276 278 278 279 279 281 282 284 285 286 289 290 283 269 261
219 218 218 217 217 218 220 225 230 230 232 235 235 234 238 241 242 243 241 238 236 234 231 227 226 229 233 235 237 240 241 242 245 248 251 251 251 252 254 257 260 262 264 266 269 272 273 274 276 276 277 278 278 279 280 280 280 280 282 285 282 269 257
219 219 219 219 220 223 226 231 236 238 240 244 244 244 244 247 251 253 252 250 246 242 239 237 236 236 238 240 244 247 250 252 254 255 256 256 254 253 251 253 255 257 260 264 268 271 272 273 274 274 276 277 277 278 277 277 278 278 278 279 275 263 252
220 219 220 222 224 228 232 236 240 244 246 248 249 249 248 249 252 255 256 253 247 242 241 244 246 247 247 250 253 256 261 264 266 268 268 266 264 261 258 256 256 256 259 264 269 271 271 271 271 273 275 275 275 275 274 275 277 277 275 273 266 255 249
228 227 226 227 230 234 237 240 243 246 249 252 254 253 252 250 251 253 255 254 249 245 245 248 252 253 254 257 258 259 262 266 270 273 274 273 273 272 270 267 264 264 266 267 267 269 271 272 273 274 275 275 276 277 277 277 276 272 268 265 257 249 246
234 233 232 233 236 239 241 242 244 245 247 248 251 253 254 254 253 253 254 255 254 254 254 255 258 260 261 260 260 259 260 263 266 268 268 270 272 272 271 270 270 271 272 272 271 272 274 276 276 276 276 278 280 280 278 275 271 265 258 252 247 244 244
239 239 237 237 238 241 243 244 246 247 249 250 251 253 255 256 257 256 255 255 255 257 258 258 259 262 263 263 263 263 263 263 264 265 265 267 267 268 270 272 271 271 271 271 271 272 273 274 275 275 275 277 278 278 276 272 266 259 249 242 240 241 244
242 242 241 241 242 244 247 249 251 253 255 256 256 255 256 256 257 257 255 254 255 257 258 258 258 259 260 262 263 264 264 265 266 266 265 264 264 264 265 267 268 268 268 268 269 271 272 274 274 273 274 276 276 274 274 271 261 249 240 237 238 241 244
247 247 248 248 249 250 251 252 253 255 256 258 259 259 259 260 260 260 258 257 256 257 257 258 259 259 260 261 262 263 264 265 266 266 265 264 265 265 264 263 264 266 267 268 270 272 273 273 272 271 272 274 274 273 273 271 261 245 234 235 237 240 243
249 250 250 251 251 252 253 253 254 255 257 259 260 261 262 263 262 262 261 259 258 258 258 258 259 260 261 261 263 264 265 266 266 265 264 264 264 264 263 262 262 263 265 267 269 271 271 271 271 271 271 270 271 271 271 268 259 242 232 233 235 238 242
250 251 252 253 253 254 255 256 257 258 260 261 262 263 263 263 263 263 263 262 261 260 260 260 261 261 261 262 263 264 265 266 267 266 265 264 263 262 262 261 261 261 262 264 267 269 269 269 270 270 271 273 273 270 266 261 250 235 229 231 234 237 240
Height
3148 3149 3149 3149 3149 3149 3149 3149 3149 3149 3149 3149 3149 3148 3147 3147 3146 3146 3145 3145 3146 3146 3147 3147 3147 3147 3148 3149 3150 3151 3151 3152 3153 3153 3154 3155 3156 3157 3158 3158 3158 3158 3159 3159 3159 3159 3160 3160 3161 3162 3163 3163 3163 3163 3163 3163 3162 3162 3161 3160 3160 3161 3161
3148 3149 3149 3149 3149 3149 3150 3149 3149 3149 3149 3149 3149 3149 3148 3147 3146 3146 3145 3145 3145 3145 3146 3147 3147 3147 3148 3148 3149 3149 3150 3151 3152 3153 3153 3154 3155 3156 3157 3157 3156 3156 3158 3158 3158 3158 3159 3159 3160 3161 3162 3162 3162 3162 3163 3162 3162 3161 3160 3160 3160 3160 3160
3148 3149 3149 3149 3150 3150 3150 3150 3149 3149 3149 3149 3149 3148 3148 3147 3146 3146 3145 3145 3145 3145 3145 3146 3147 3147 3148 3148 3148 3149 3149 3150 3151 3152 3153 3153 3154 3155 3156 3156 3156 3156 3157 3158 3158 3157 3158 3158 3159 3160 3161 3162 3161 3162 3162 3162 3161 3160 3160 3160 3161 3161 3161
3148 3148 3149 3149 3149 3149 3149 3149 3149 3149 3148 3148 3148 3147 3147 3147 3146 3145 3145 3144 3144 3144 3145 3145 3146 3147 3147 3148 3148 3149 3149 3150 3150 3151 3152 3152 3153 3154 3155 3156 3156 3156 3156 3157 3157 3157 3157 3158 3158 3159 3160 3161 3161 3161 3161 3161 3160 3160 3160 3161 3161 3161 3161
3147 3148 3148 3148 3148 3148 3148 3148 3148 3148 3147 3147 3146 3146 3146 3146 3146 3145 3145 3145 3144 3144 3144 3145 3146 3147 3147 3147 3148 3148 3149 3150 3150 3150 3150 3151 3152 3153 3154 3155 3155 3155 3156 3156 3157 3157 3157 3158 3158 3158 3158 3160 3161 3160 3160 3160 3160 3160 3160 3161 3161 3161 3161
3146 3147 3147 3147 3147 3147 3147 3147 3147 3147 3146 3146 3145 3145 3145 3145 3145 3145 3145 3145 3145 3145 3144 3145 3145 3146 3147 3147 3147 3148 3148 3149 3149 3149 3150 3150 3151 3152 3153 3154 3154 3155 3156 3156 3157 3157 3157 3157 3158 3158 3158 3159 3159 3159 3159 3159 3159 3160 3161 3161 3161 3161 3161
3145 3146 3146 3147 3147 3147 3146 3146 3146 3146 3146 3146 3145 3145 3144 3144 3144 3144 3144 3144 3144 3145 3145 3145 3146 3146 3147 3147 3147 3147 3147 3148 3148 3149 3149 3150 3150 3151 3152 3153 3154 3155 3156 3157 3157 3157 3157 3158 3158 3158 3158 3158 3159 3159 3159 3159 3159 3159 3160 3161 3161 3161 3161
3144 3145 3146 3146 3146 3146 3146 3146 3146 3146 3146 3145 3145 3145 3144 3144 3144 3143 3144 3144 3144 3144 3144 3145 3146 3146 3147 3147 3148 3148 3148 3148 3148 3149 3149 3149 3150 3151 3151 3153 3154 3156 3157 3157 3158 3158 3158 3158 3158 3158 3158 3158 3159 3159 3159 3159 3159 3159 3160 3161 3161 3161 3161
3143 3144 3145 3146 3146 3146 3146 3146 3146 3145 3145 3145 3144 3144 3144 3144 3143 3143 3143 3144 3144 3143 3143 3144 3145 3146 3146 3147 3147 3148 3148 3148 3148 3148 3148 3149 3149 3150 3151 3152 3153 3155 3156 3157 3158 3158 3158 3158 3158 3158 3159 3159 3159 3159 3159 3159 3159 3159 3160 3161 3161 3161 3162
3143 3144 3145 3145 3146 3145 3145 3145 3145 3145 3144 3144 3144 3144 3143 3143 3143 3142 3142 3143 3143 3143 3143 3143 3144 3145 3145 3146 3146 3146 3147 3147 3148 3148 3148 3149 3149 3150 3151 3151 3152 3154 3155 3156 3158 3158 3158 3158 3158 3158 3159 3160 3159 3159 3159 3159 3160 3160 3160 3161 3161 3162 3162
3142 3143 3144 3144 3145 3144 3144 3144 3144 3144 3143 3143 3143 3143 3143 3143 3142 3142 3142 3142 3142 3142 3143 3143 3144 3144 3145 3145 3145 3145 3146 3147 3148 3148 3148 3149 3149 3150 3150 3151 3152 3153 3155 3156 3157 3158 3158 3158 3158 3158 3158 3159 3160 3160 3160 3160 3160 3160 3161 3161 3161 3162 3162
3140 3141 3142 3143 3143 3143 3143 3143 3143 3143 3142 3142 3142 3142 3142 3142 3141 3141 3141 3142 3142 3142 3142 3143 3143 3144 3144 3144 3145 3145 3146 3146 3147 3148 3149 3149 3150 3150 3151 3151 3151 3152 3154 3155 3156 3157 3158 3159 3159 3158 3158 3159 3160 3160 3160 3160 3160 3160 3161 3161 3161 3162 3162
3139 3140 3141 3141 3142 3142 3142 3142 3142 3142 3141 3141 3141 3141 3141 3141 3140 3141 3141 3141 3142 3142 3142 3143 3143 3144 3144 3145 3145 3145 3146 3146 3147 3148 3149 3150 3150 3151 3151 3152 3152 3153 3154 3155 3156 3156 3157 3158 3158 3158 3158 3159 3160 3160 3160 3160 3160 3160 3161 3161 3161 3162 3162
3137 3138 3139 3140 3141 3141 3141 3141 3141 3141 3140 3140 3140 3140 3140 3140 3140 3140 3140 3141 3141 3141 3142 3142 3143 3144 3145 3145 3145 3145 3146 3147 3147 3148 3149 3150 3151 3151 3152 3152 3153 3154 3154 3155 3156 3156 3157 3157 3158 3158 3159 3159 3160 3160 3160 3160 3160 3160 3160 3161 3161 3161 3161
3135 3136 3138 3139 3140 3140 3140 3140 3140 3140 3139 3139 3139 3139 3138 3139 3139 3139 3140 3141 3141 3141 3142 3142 3143 3144 3144 3145 3145 3146 3146 3147 3147 3148 3149 3150 3151 3151 3152 3153 3153 3154 3155 3156 3156 3157 3157 3158 3159 3159 3159 3159 3159 3159 3159 3159 3159 3159 3159 3160 3160 3160 3160
3134 3135 3137 3138 3139 3139 3139 3139 3139 3139 3139 3139 3138 3138 3137 3138 3138 3139 3140 3140 3141 3141 3142 3142 3143 3144 3144 3145 3145 3146 3146 3147 3148 3149 3149 3150 3151 3152 3152 3153 3154 3155 3155 3156 3157 3157 3158 3158 3159 3159 3159 3159 3158 3158 3158 3158 3158 3158 3158 3158 3158 3159 3159
3133 3134 3135 3137 3138 3138 3138 3138 3138 3138 3138 3138 3137 3137 3136 3137 3138 3139 3140 3140 3141 3141 3142 3142 3143 3144 3144 3145 3145 3146 3147 3148 3148 3149 3150 3151 3152 3153 3153 3154 3155 3155 3156 3157 3157 3157 3158 3158 3158 3158 3158 3158 3158 3158 3158 3158 3158 3158 3157 3157 3157 3157 3157
3130 3132 3134 3135 3136 3137 3137 3137 3137 3137 3137 3136 3136 3136 3136 3136 3138 3139 3140 3140 3141 3141 3142 3143 3143 3144 3144 3145 3145 3146 3147 3148 3149 3150 3151 3152 3153 3154 3154 3155 3155 3156 3156 3157 3157 3157 3157 3157 3157 3157 3158 3158 3158 3158 3157 3157 3157 3156 3156 3156 3155 3155 3155
3128 3129 3130 3132 3133 3135 3135 3136 3136 3136 3136 3135 3135 3135 3135 3136 3138 3139 3139 3140 3141 3141 3142 3143 3143 3144 3144 3145 3145 3146 3147 3148 3149 3150 3151 3152 3153 3154 3154 3155 3155 3155 3156 3156 3156 3156 3156 3157 3157 3157 3156 3156 3156 3156 3156 3156 3155 3154 3154 3154 3154 3153 3153
3127 3128 3128 3128 3130 3131 3133 3134 3134 3134 3134 3134 3134 3135 3135 3136 3137 3138 3139 3140 3140 3141 3141 3142 3143 3144 3144 3145 3146 3146 3147 3148 3149 3150 3151 3151 3152 3153 3154 3154 3154 3154 3155 3155 3155 3155 3155 3155 3155 3155 3155 3154 3154 3153 3153 3153 3153 3152 3152 3152 3152 3152 3151
3125 3128 3128 3128 3128 3129 3131 3132 3132 3132 3133 3133 3133 3134 3135 3136 3137 3138 3138 3139 3140 3140 3141 3142 3143 3144 3144 3145 3146 3147 3148 3148 3149 3150 3150 3150 3151 3152 3152 3153 3153 3153 3153 3153 3153 3153 3153 3153 3153 3153 3153 3152 3152 3151 3151 3151 3150 3150 3150 3149 3149 3149 3149
3124 3126 3128 3129 3128 3128 3129 3130 3130 3131 3131 3132 3133 3133 3134 3135 3136 3137 3137 3138 3139 3140 3141 3142 3143 3144 3144 3145 3146 3146 3147 3148 3148 3149 3149 3149 3150 3150 3151 3151 3152 3152 3152 3152 3152 3151 3151 3150 3151 3151 3151 3151 3150 3150 3149 3149 3148 3148 3148 3147 3146 3145 3145
3123 3124 3126 3128 3128 3128 3129 3129 3129 3130 3130 3131 3132 3132 3133 3134 3135 3135 3136 3137 3139 3140 3141 3141 3142 3143 3143 3144 3145 3145 3146 3146 3147 3148 3148 3148 3149 3149 3149 3149 3150 3150 3150 3150 3150 3150 3149 3149 3148 3149 3149 3149 3148 3148 3147 3147 3146 3145 3145 3145 3144 3143 3143
3121 3123 3125 3126 3126 3127 3128 3128 3128 3129 3129 3130 3131 3131 3132 3133 3133 3134 3135 3136 3137 3138 3139 3140 3141 3141 3142 3142 3143 3143 3144 3144 3145 3145 3146 3146 3147 3147 3147 3147 3148 3148 3148 3148 3148 3148 3147 3147 3146 3146 3146 3146 3145 3145 3144 3144 3144 3143 3142 3141 3141 3141 3141
3119 3121 3123 3124 3124 3125 3126 3127 3128 3128 3128 3128 3129 3130 3131 3131 3132 3132 3133 3134 3135 3136 3137 3137 3138 3138 3139 3140 3140 3141 3141 3141 3142 3142 3143 3143 3143 3144 3144 3144 3144 3144 3144 3145 3145 3145 3145 3144 3144 3143 3143 3143 3142 3142 3142 3141 3141 3140 3139 3138 3138 3138 3138
3117 3119 3120 3121 3121 3122 3124 3126 3127 3127 3127 3127 3128 3128 3129 3129 3130 3130 3130 3131 3132 3133 3134 3134 3135 3135 3136 3136 3137 3137 3138 3138 3138 3138 3139 3139 3139 3139 3139 3140 3140 3140 3141 3141 3141 3141 3141 3141 3141 3140 3140 3139 3139 3138 3138 3138 3138 3137 3136 3135 3134 3134 3134
3116 3117 3118 3119 3120 3121 3122 3123 3124 3125 3126 3127 3127 3127 3127 3127 3127 3128 3128 3129 3130 3131 3131 3132 3132 3132 3133 3133 3133 3134 3134 3134 3134 3134 3135 3135 3135 3135 3135 3135 3136 3136 3136 3136 3136 3137 3137 3137 3136 3136 3136 3135 3135 3135 3135 3134 3134 3133 3132 3131 3131 3130 3131
3115 3116 3117 3117 3118 3119 3120 3121 3122 3122 3123 3124 3124 3124 3124 3124 3124 3125 3126 3127 3127 3128 3128 3129 3129 3129 3129 3130 3130 3130 3130 3130 3130 3131 3131 3131 3131 3131 3131 3131 3132 3132 3132 3132 3132 3132 3132 3132 3132 3131 3131 3131 3130 3130 3130 3130 3130 3129 3129 3128 3127 3127 3127
3114 3115 3115 3116 3117 3117 3118 3119 3119 3119 3120 3120 3121 3121 3121 3121 3122 3122 3123 3124 3124 3125 3125 3125 3126 3126 3126 3126 3126 3126 3126 3126 3127 3127 3127 3127 3127 3127 3127 3127 3127 3127 3127 3127 3128 3128 3128 3127 3127 3127 3126 3126 3125 3125 3126 3126 3126 3125 3124 3124 3124 3124 3124
3112 3113 3113 3114 3114 3115 3115 3115 3115 3116 3116 3117 3117 3118 3118 3119 3119 3119 3119 3120 3121 3121 3121 3122 3122 3122 3122 3122 3122 3122 3121 3121 3121 3121 3122 3122 3122 3122 3123 3123 3123 3123 3123 3124 3124 3123 3122 3122 3122 3122 3122 3122 3121 3121 3121 3121 3121 3120 3120 3120 3120 3120 3120
3110 3110 3110 3111 3111 3111 3112 3112 3112 3113 3113 3114 3114 3114 3115 3116 3116 3116 3116 3116 3117 3117 3118 3118 3118 3118 3119 3118 3118 3118 3118 3117 3117 3116 3117 3117 3117 3118 3118 3118 3118 3118 3119 3119 3119 3117 3116 3117 3117 3117 3117 3117 3116 3116 3116 3115 3116 3116 3115 3115 3116 3116 3116
3106 3107 3107 3108 3108 3108 3109 3109 3109 3110 3110 3111 3111 3112 3112 3113 3113 3113 3113 3113 3113 3114 3114 3115 3114 3114 3114 3114 3114 3114 3114 3113 3113 3113 3112 3112 3112 3113 3113 3113 3114 3114 3114 3114 3113 3112 3112 3113 3113 3113 3113 3112 3111 3111 3111 3110 3110 3110 3110 3111 3112 3112 3112
3103 3104 3105 3105 3105 3105 3106 3106 3107 3107 3108 3108 3109 3109 3109 3110 3110 3110 3110 3110 3109 3109 3109 3110 3110 3110 3109 3109 3109 3109 3109 3108 3108 3108 3108 3108 3108 3108 3107 3107 3108 3109 3109 3108 3108 3108 3108 3108 3108 3108 3108 3107 3107 3106 3105 3105 3105 3105 3106 3106 3107 3108 3108
3101 3101 3102 3102 3102 3103 3103 3104 3104 3104 3105 3105 3106 3106 3106 3106 3106 3106 3106 3106 3105 3104 3104 3104 3105 3105 3105 3104 3104 3103 3103 3103 3103 3103 3102 3102 3102 3102 3103 3103 3103 3103 3104 3103 3103 3103 3103 3103 3103 3104 3103 3103 3102 3101 3100 3100 3100 3100 3101 3102 3103 3104 3104
3098 3098 3098 3099 3099 3099 3100 3100 3100 3101 3101 3101 3101 3101 3101 3102 3101 3101 3101 3101 3101 3100 3099 3099 3098 3099 3099 3099 3099 3098 3097 3097 3097 3097 3096 3096 3096 3096 3097 3098 3098 3098 3098 3098 3098 3098 3098 3097 3097 3098 3099 3098 3097 3096 3096 3096 3096 3096 3097 3098 3099 3099 3099
3094 3094 3094 3095 3095 3095 3095 3096 3096 3096 3096 3096 3096 3095 3095 3095 3095 3095 3095 3095 3095 3095 3094 3093 3093 3092 3092 3092 3093 3092 3092 3092 3092 3091 3090 3090 3090 3091 3091 3092 3092 3092 3092 3092 3092 3092 3092 3092 3092 3092 3093 3093 3092 3092 3092 3091 3092 3092 3093 3094 3094 3095 3095
3090 3090 3090 3090 3090 3090 3091 3091 3090 3090 3090 3089 3089 3089 3088 3088 3088 3087 3087 3087 3087 3088 3087 3087 3086 3085 3085 3085 3085 3086 3086 3086 3086 3085 3084 3084 3084 3085 3085 3086 3086 3086 3086 3086 3087 3087 3087 3087 3087 3087 3087 3087 3087 3086 3086 3086 3087 3088 3089 3089 3090 3091 3092